Year,Month,Day,Hour,Minute,Value (Times are PST for temperature in C)
2018,05,26,00,00,10.80
2018,05,26,00,01,10.70
2018,05,26,00,02,10.70
2018,05,26,00,03,10.70
2018,05,26,00,04,10.70
2018,05,26,00,05,10.70
2018,05,26,00,06,10.70
2018,05,26,00,07,10.70
2018,05,26,00,08,10.60
2018,05,26,00,09,10.60
2018,05,26,00,10,10.60
2018,05,26,00,11,10.60
2018,05,26,00,12,10.60
2018,05,26,00,13,10.50
2018,05,26,00,14,10.50
2018,05,26,00,15,10.50
2018,05,26,00,16,10.40
2018,05,26,00,17,10.40
2018,05,26,00,18,10.40
2018,05,26,00,19,10.40
2018,05,26,00,20,10.30
2018,05,26,00,21,10.30
2018,05,26,00,22,10.30
2018,05,26,00,23,10.30
2018,05,26,00,24,10.30
2018,05,26,00,25,10.30
2018,05,26,00,26,10.30
2018,05,26,00,27,10.30
2018,05,26,00,28,10.30
2018,05,26,00,29,10.30
2018,05,26,00,30,10.30
2018,05,26,00,31,10.30
2018,05,26,00,32,10.20
2018,05,26,00,33,10.20
2018,05,26,00,34,10.20
2018,05,26,00,35,10.20
2018,05,26,00,36,10.20
2018,05,26,00,37,10.20
2018,05,26,00,38,10.20
2018,05,26,00,39,10.20
2018,05,26,00,40,10.20
2018,05,26,00,41,10.20
2018,05,26,00,42,10.10
2018,05,26,00,43,10.10
2018,05,26,00,44,10.10
2018,05,26,00,45,10.10
2018,05,26,00,46,10.10
2018,05,26,00,47,10.10
2018,05,26,00,48,10.10
2018,05,26,00,49,10.10
2018,05,26,00,50,10.10
2018,05,26,00,51,10.20
2018,05,26,00,52,10.20
2018,05,26,00,53,10.20
2018,05,26,00,54,10.20
2018,05,26,00,55,10.20
2018,05,26,00,56,10.20
2018,05,26,00,57,10.20
2018,05,26,00,58,10.20
2018,05,26,00,59,10.20
2018,05,26,01,00,10.20
2018,05,26,01,01,10.20
2018,05,26,01,02,10.20
2018,05,26,01,03,10.20
2018,05,26,01,04,10.20
2018,05,26,01,05,10.10
2018,05,26,01,06,10.10
2018,05,26,01,07,10.10
2018,05,26,01,08,10.10
2018,05,26,01,09,10.10
2018,05,26,01,10,10.10
2018,05,26,01,11,10.10
2018,05,26,01,12,10.00
2018,05,26,01,13,10.00
2018,05,26,01,14,10.00
2018,05,26,01,15,10.00
2018,05,26,01,16,10.00
2018,05,26,01,17,9.90
2018,05,26,01,18,9.90
2018,05,26,01,19,9.90
2018,05,26,01,20,9.90
2018,05,26,01,21,9.90
2018,05,26,01,22,9.90
2018,05,26,01,23,9.90
2018,05,26,01,24,9.90
2018,05,26,01,25,9.90
2018,05,26,01,26,9.90
2018,05,26,01,27,9.90
2018,05,26,01,28,9.90
2018,05,26,01,29,9.90
2018,05,26,01,30,9.90
2018,05,26,01,31,9.90
2018,05,26,01,32,9.80
2018,05,26,01,33,9.80
2018,05,26,01,34,9.80
2018,05,26,01,35,9.80
2018,05,26,01,36,9.80
2018,05,26,01,37,9.80
2018,05,26,01,38,9.80
2018,05,26,01,39,9.80
2018,05,26,01,40,9.80
2018,05,26,01,41,9.80
2018,05,26,01,42,9.80
2018,05,26,01,43,9.80
2018,05,26,01,44,9.80
2018,05,26,01,45,9.80
2018,05,26,01,46,9.80
2018,05,26,01,47,9.80
2018,05,26,01,48,9.80
2018,05,26,01,49,9.80
2018,05,26,01,50,9.70
2018,05,26,01,51,9.70
2018,05,26,01,52,9.70
2018,05,26,01,53,9.70
2018,05,26,01,54,9.70
2018,05,26,01,55,9.70
2018,05,26,01,56,9.70
2018,05,26,01,57,9.70
2018,05,26,01,58,9.70
2018,05,26,01,59,9.70
2018,05,26,02,00,9.70
2018,05,26,02,01,9.70
2018,05,26,02,02,9.60
2018,05,26,02,03,9.60
2018,05,26,02,04,9.60
2018,05,26,02,05,9.60
2018,05,26,02,06,9.60
2018,05,26,02,07,9.60
2018,05,26,02,08,9.60
2018,05,26,02,09,9.60
2018,05,26,02,10,9.60
2018,05,26,02,11,9.60
2018,05,26,02,12,9.60
2018,05,26,02,13,9.60
2018,05,26,02,14,9.50
2018,05,26,02,15,9.60
2018,05,26,02,16,9.50
2018,05,26,02,17,9.50
2018,05,26,02,18,9.50
2018,05,26,02,19,9.50
2018,05,26,02,20,9.50
2018,05,26,02,21,9.50
2018,05,26,02,22,9.50
2018,05,26,02,23,9.40
2018,05,26,02,24,9.40
2018,05,26,02,25,9.40
2018,05,26,02,26,9.40
2018,05,26,02,27,9.40
2018,05,26,02,28,9.40
2018,05,26,02,29,9.40
2018,05,26,02,30,9.40
2018,05,26,02,31,9.50
2018,05,26,02,32,9.50
2018,05,26,02,33,9.50
2018,05,26,02,34,9.50
2018,05,26,02,35,9.50
2018,05,26,02,36,9.50
2018,05,26,02,37,9.50
2018,05,26,02,38,9.40
2018,05,26,02,39,9.40
2018,05,26,02,40,9.40
2018,05,26,02,41,9.40
2018,05,26,02,42,9.40
2018,05,26,02,43,9.40
2018,05,26,02,44,9.40
2018,05,26,02,45,9.40
2018,05,26,02,46,9.40
2018,05,26,02,47,9.40
2018,05,26,02,48,9.40
2018,05,26,02,49,9.40
2018,05,26,02,50,9.40
2018,05,26,02,51,9.40
2018,05,26,02,52,9.40
2018,05,26,02,53,9.40
2018,05,26,02,54,9.50
2018,05,26,02,55,9.50
2018,05,26,02,56,9.40
2018,05,26,02,57,9.40
2018,05,26,02,58,9.40
2018,05,26,02,59,9.40
2018,05,26,03,00,9.40
2018,05,26,03,01,9.50
2018,05,26,03,02,9.50
2018,05,26,03,03,9.50
2018,05,26,03,04,9.50
2018,05,26,03,05,9.50
2018,05,26,03,06,9.50
2018,05,26,03,07,9.50
2018,05,26,03,08,9.50
2018,05,26,03,09,9.40
2018,05,26,03,10,9.40
2018,05,26,03,11,9.40
2018,05,26,03,12,9.40
2018,05,26,03,13,9.40
2018,05,26,03,14,9.30
2018,05,26,03,15,9.30
2018,05,26,03,16,9.30
2018,05,26,03,17,9.30
2018,05,26,03,18,9.20
2018,05,26,03,19,9.20
2018,05,26,03,20,9.20
2018,05,26,03,21,9.20
2018,05,26,03,22,9.20
2018,05,26,03,23,9.20
2018,05,26,03,24,9.20
2018,05,26,03,25,9.20
2018,05,26,03,26,9.20
2018,05,26,03,27,9.20
2018,05,26,03,28,9.20
2018,05,26,03,29,9.20
2018,05,26,03,30,9.20
2018,05,26,03,31,9.20
2018,05,26,03,32,9.20
2018,05,26,03,33,9.20
2018,05,26,03,34,9.30
2018,05,26,03,35,9.30
2018,05,26,03,36,9.30
2018,05,26,03,37,9.30
2018,05,26,03,38,9.30
2018,05,26,03,39,9.30
2018,05,26,03,40,9.30
2018,05,26,03,41,9.30
2018,05,26,03,42,9.30
2018,05,26,03,43,9.30
2018,05,26,03,44,9.30
2018,05,26,03,45,9.30
2018,05,26,03,46,9.30
2018,05,26,03,47,9.30
2018,05,26,03,48,9.30
2018,05,26,03,49,9.30
2018,05,26,03,50,9.30
2018,05,26,03,51,9.20
2018,05,26,03,52,9.20
2018,05,26,03,53,9.20
2018,05,26,03,54,9.20
2018,05,26,03,55,9.20
2018,05,26,03,56,9.20
2018,05,26,03,57,9.20
2018,05,26,03,58,9.10
2018,05,26,03,59,9.10
2018,05,26,04,00,9.10
2018,05,26,04,01,9.10
2018,05,26,04,02,9.00
2018,05,26,04,03,9.00
2018,05,26,04,04,8.90
2018,05,26,04,08,8.90
2018,05,26,04,09,8.90
2018,05,26,04,10,8.90
2018,05,26,04,11,8.90
2018,05,26,04,12,8.90
2018,05,26,04,13,8.90
2018,05,26,04,14,8.80
2018,05,26,04,15,8.80
2018,05,26,04,16,8.80
2018,05,26,04,17,8.80
2018,05,26,04,18,8.80
2018,05,26,04,19,8.80
2018,05,26,04,20,8.80
2018,05,26,04,21,8.80
2018,05,26,04,22,8.80
2018,05,26,04,23,8.80
2018,05,26,04,24,8.70
2018,05,26,04,25,8.70
2018,05,26,04,26,8.70
2018,05,26,04,27,8.70
2018,05,26,04,28,8.70
2018,05,26,04,29,8.70
2018,05,26,04,30,8.60
2018,05,26,04,31,8.60
2018,05,26,04,32,8.60
2018,05,26,04,33,8.60
2018,05,26,04,34,8.60
2018,05,26,04,35,8.50
2018,05,26,04,36,8.50
2018,05,26,04,37,8.40
2018,05,26,04,38,8.40
2018,05,26,04,39,8.40
2018,05,26,04,40,8.40
2018,05,26,04,41,8.30
2018,05,26,04,42,8.30
2018,05,26,04,43,8.30
2018,05,26,04,44,8.30
2018,05,26,04,45,8.30
2018,05,26,04,46,8.30
2018,05,26,04,47,8.30
2018,05,26,04,48,8.30
2018,05,26,04,49,8.30
2018,05,26,04,50,8.30
2018,05,26,04,51,8.30
2018,05,26,04,52,8.30
2018,05,26,04,53,8.30
2018,05,26,04,54,8.30
2018,05,26,04,55,8.30
2018,05,26,04,56,8.30
2018,05,26,04,57,8.40
2018,05,26,04,58,8.40
2018,05,26,04,59,8.40
2018,05,26,05,00,8.40
2018,05,26,05,01,8.40
2018,05,26,05,02,8.40
2018,05,26,05,03,8.40
2018,05,26,05,04,8.40
2018,05,26,05,05,8.40
2018,05,26,05,06,8.40
2018,05,26,05,07,8.50
2018,05,26,05,08,8.40
2018,05,26,05,09,8.40
2018,05,26,05,10,8.40
2018,05,26,05,11,8.40
2018,05,26,05,12,8.40
2018,05,26,05,13,8.40
2018,05,26,05,14,8.40
2018,05,26,05,15,8.40
2018,05,26,05,16,8.40
2018,05,26,05,17,8.40
2018,05,26,05,18,8.40
2018,05,26,05,19,8.40
2018,05,26,05,20,8.50
2018,05,26,05,21,8.50
2018,05,26,05,22,8.50
2018,05,26,05,23,8.50
2018,05,26,05,24,8.50
2018,05,26,05,25,8.60
2018,05,26,05,26,8.60
2018,05,26,05,27,8.60
2018,05,26,05,28,8.60
2018,05,26,05,29,8.60
2018,05,26,05,30,8.60
2018,05,26,05,31,8.60
2018,05,26,05,32,8.60
2018,05,26,05,33,8.60
2018,05,26,05,34,8.60
2018,05,26,05,35,8.60
2018,05,26,05,36,8.60
2018,05,26,05,37,8.60
2018,05,26,05,38,8.60
2018,05,26,05,39,8.60
2018,05,26,05,40,8.60
2018,05,26,05,41,8.60
2018,05,26,05,42,8.50
2018,05,26,05,43,8.50
2018,05,26,05,44,8.50
2018,05,26,05,45,8.40
2018,05,26,05,46,8.40
2018,05,26,05,47,8.40
2018,05,26,05,48,8.40
2018,05,26,05,49,8.40
2018,05,26,05,50,8.40
2018,05,26,05,51,8.40
2018,05,26,05,52,8.40
2018,05,26,05,53,8.40
2018,05,26,05,54,8.40
2018,05,26,05,55,8.40
2018,05,26,05,56,8.50
2018,05,26,05,57,8.50
2018,05,26,05,58,8.50
2018,05,26,05,59,8.60
2018,05,26,06,00,8.60
2018,05,26,06,01,8.60
2018,05,26,06,02,8.60
2018,05,26,06,03,8.70
2018,05,26,06,04,8.70
2018,05,26,06,05,8.70
2018,05,26,06,06,8.70
2018,05,26,06,07,8.80
2018,05,26,06,08,8.80
2018,05,26,06,09,8.90
2018,05,26,06,10,8.90
2018,05,26,06,11,9.00
2018,05,26,06,12,9.00
2018,05,26,06,13,9.00
2018,05,26,06,14,9.10
2018,05,26,06,15,9.10
2018,05,26,06,16,9.10
2018,05,26,06,17,9.20
2018,05,26,06,18,9.20
2018,05,26,06,19,9.20
2018,05,26,06,20,9.30
2018,05,26,06,21,9.30
2018,05,26,06,22,9.40
2018,05,26,06,23,9.50
2018,05,26,06,24,9.50
2018,05,26,06,25,9.60
2018,05,26,06,26,9.80
2018,05,26,06,27,9.90
2018,05,26,06,28,10.00
2018,05,26,06,29,10.10
2018,05,26,06,30,10.30
2018,05,26,06,31,10.40
2018,05,26,06,32,10.50
2018,05,26,06,33,10.60
2018,05,26,06,34,10.60
2018,05,26,06,35,10.70
2018,05,26,06,36,10.80
2018,05,26,06,37,10.90
2018,05,26,06,38,11.00
2018,05,26,06,39,11.10
2018,05,26,06,40,11.10
2018,05,26,06,41,11.20
2018,05,26,06,42,11.30
2018,05,26,06,43,11.30
2018,05,26,06,44,11.40
2018,05,26,06,45,11.40
2018,05,26,06,46,11.50
2018,05,26,06,47,11.60
2018,05,26,06,48,11.60
2018,05,26,06,49,11.70
2018,05,26,06,50,11.70
2018,05,26,06,51,11.70
2018,05,26,06,52,11.80
2018,05,26,06,53,11.80
2018,05,26,06,54,11.80
2018,05,26,06,55,11.90
2018,05,26,06,56,11.90
2018,05,26,06,57,11.90
2018,05,26,06,58,11.90
2018,05,26,06,59,11.90
2018,05,26,07,00,12.00
2018,05,26,07,01,12.00
2018,05,26,07,02,12.00
2018,05,26,07,03,12.00
2018,05,26,07,04,12.00
2018,05,26,07,05,12.10
2018,05,26,07,06,12.10
2018,05,26,07,07,12.10
2018,05,26,07,08,12.10
2018,05,26,07,09,12.10
2018,05,26,07,10,12.10
2018,05,26,07,11,12.10
2018,05,26,07,12,12.20
2018,05,26,07,13,12.20
2018,05,26,07,14,12.20
2018,05,26,07,15,12.20
2018,05,26,07,16,12.20
2018,05,26,07,17,12.10
2018,05,26,07,18,12.10
2018,05,26,07,19,12.10
2018,05,26,07,20,12.10
2018,05,26,07,21,12.10
2018,05,26,07,22,12.10
2018,05,26,07,23,12.10
2018,05,26,07,24,12.10
2018,05,26,07,25,12.10
2018,05,26,07,26,12.10
2018,05,26,07,27,12.10
2018,05,26,07,28,12.10
2018,05,26,07,29,12.10
2018,05,26,07,30,12.10
2018,05,26,07,31,12.10
2018,05,26,07,32,12.10
2018,05,26,07,33,12.10
2018,05,26,07,34,12.10
2018,05,26,07,35,12.10
2018,05,26,07,36,12.20
2018,05,26,07,37,12.20
2018,05,26,07,38,12.20
2018,05,26,07,39,12.20
2018,05,26,07,40,12.30
2018,05,26,07,41,12.30
2018,05,26,07,42,12.40
2018,05,26,07,43,12.50
2018,05,26,07,44,12.50
2018,05,26,07,45,12.60
2018,05,26,07,46,12.60
2018,05,26,07,47,12.70
2018,05,26,07,48,12.70
2018,05,26,07,49,12.70
2018,05,26,07,50,12.80
2018,05,26,07,51,12.80
2018,05,26,07,52,12.90
2018,05,26,07,53,12.90
2018,05,26,07,54,13.00
2018,05,26,07,55,13.00
2018,05,26,07,56,13.00
2018,05,26,07,57,13.00
2018,05,26,07,58,13.00
2018,05,26,07,59,13.00
2018,05,26,08,00,13.00
2018,05,26,08,01,13.10
2018,05,26,08,02,13.10
2018,05,26,08,03,13.10
2018,05,26,08,04,13.10
2018,05,26,08,05,13.10
2018,05,26,08,06,13.10
2018,05,26,08,07,13.10
2018,05,26,08,08,13.20
2018,05,26,08,09,13.20
2018,05,26,08,10,13.20
2018,05,26,08,11,13.20
2018,05,26,08,12,13.30
2018,05,26,08,13,13.40
2018,05,26,08,14,13.40
2018,05,26,08,15,13.40
2018,05,26,08,16,13.50
2018,05,26,08,17,13.60
2018,05,26,08,18,13.60
2018,05,26,08,19,13.60
2018,05,26,08,20,13.60
2018,05,26,08,21,13.70
2018,05,26,08,22,13.70
2018,05,26,08,23,13.70
2018,05,26,08,24,13.80
2018,05,26,08,25,13.80
2018,05,26,08,26,13.80
2018,05,26,08,27,13.80
2018,05,26,08,28,13.90
2018,05,26,08,29,14.00
2018,05,26,08,30,14.20
2018,05,26,08,31,14.30
2018,05,26,08,32,14.40
2018,05,26,08,33,14.50
2018,05,26,08,34,14.60
2018,05,26,08,35,14.70
2018,05,26,08,36,14.80
2018,05,26,08,37,14.80
2018,05,26,08,38,14.80
2018,05,26,08,39,14.80
2018,05,26,08,40,14.90
2018,05,26,08,41,14.90
2018,05,26,08,42,15.00
2018,05,26,08,43,15.10
2018,05,26,08,44,15.20
2018,05,26,08,45,15.30
2018,05,26,08,46,15.40
2018,05,26,08,47,15.50
2018,05,26,08,48,15.60
2018,05,26,08,49,15.60
2018,05,26,08,50,15.70
2018,05,26,08,51,15.70
2018,05,26,08,52,15.80
2018,05,26,08,53,15.80
2018,05,26,08,54,15.80
2018,05,26,08,55,15.70
2018,05,26,08,56,15.70
2018,05,26,08,57,15.70
2018,05,26,08,58,15.70
2018,05,26,08,59,15.70
2018,05,26,09,00,15.70
2018,05,26,09,01,15.80
2018,05,26,09,02,15.80
2018,05,26,09,03,15.80
2018,05,26,09,04,15.80
2018,05,26,09,05,15.70
2018,05,26,09,06,15.70
2018,05,26,09,07,15.70
2018,05,26,09,08,15.70
2018,05,26,09,09,15.60
2018,05,26,09,10,15.60
2018,05,26,09,11,15.50
2018,05,26,09,12,15.50
2018,05,26,09,13,15.40
2018,05,26,09,14,15.40
2018,05,26,09,15,15.30
2018,05,26,09,16,15.30
2018,05,26,09,17,15.20
2018,05,26,09,18,15.10
2018,05,26,09,19,15.00
2018,05,26,09,20,15.00
2018,05,26,09,21,14.90
2018,05,26,09,22,14.90
2018,05,26,09,23,14.90
2018,05,26,09,24,14.90
2018,05,26,09,25,14.90
2018,05,26,09,26,14.90
2018,05,26,09,27,14.80
2018,05,26,09,28,14.80
2018,05,26,09,29,14.70
2018,05,26,09,30,14.70
2018,05,26,09,31,14.60
2018,05,26,09,32,14.50
2018,05,26,09,33,14.50
2018,05,26,09,34,14.40
2018,05,26,09,35,14.30
2018,05,26,09,36,14.20
2018,05,26,09,37,14.10
2018,05,26,09,38,14.00
2018,05,26,09,39,13.90
2018,05,26,09,40,13.90
2018,05,26,09,41,13.90
2018,05,26,09,42,13.80
2018,05,26,09,43,13.80
2018,05,26,09,44,13.80
2018,05,26,09,45,13.80
2018,05,26,09,46,13.90
2018,05,26,09,47,13.90
2018,05,26,09,48,13.90
2018,05,26,09,49,14.00
2018,05,26,09,50,14.00
2018,05,26,09,51,14.10
2018,05,26,09,52,14.10
2018,05,26,09,53,14.10
2018,05,26,09,54,14.10
2018,05,26,09,55,14.10
2018,05,26,09,56,14.10
2018,05,26,09,57,14.10
2018,05,26,09,58,14.10
2018,05,26,09,59,14.10
2018,05,26,10,00,14.10
2018,05,26,10,01,14.20
2018,05,26,10,02,14.20
2018,05,26,10,03,14.30
2018,05,26,10,04,14.40
2018,05,26,10,05,14.50
2018,05,26,10,06,14.60
2018,05,26,10,07,14.60
2018,05,26,10,08,14.70
2018,05,26,10,09,14.70
2018,05,26,10,10,14.70
2018,05,26,10,11,14.70
2018,05,26,10,12,14.70
2018,05,26,10,13,14.70
2018,05,26,10,14,14.70
2018,05,26,10,15,14.70
2018,05,26,10,16,14.70
2018,05,26,10,17,14.80
2018,05,26,10,18,14.90
2018,05,26,10,19,14.90
2018,05,26,10,20,14.90
2018,05,26,10,21,15.00
2018,05,26,10,22,15.00
2018,05,26,10,23,15.10
2018,05,26,10,24,15.10
2018,05,26,10,25,15.20
2018,05,26,10,26,15.30
2018,05,26,10,27,15.40
2018,05,26,10,28,15.40
2018,05,26,10,29,15.30
2018,05,26,10,30,15.30
2018,05,26,10,31,15.30
2018,05,26,10,32,15.30
2018,05,26,10,33,15.30
2018,05,26,10,34,15.40
2018,05,26,10,35,15.40
2018,05,26,10,36,15.50
2018,05,26,10,37,15.50
2018,05,26,10,38,15.60
2018,05,26,10,39,15.70
2018,05,26,10,40,15.80
2018,05,26,10,41,15.80
2018,05,26,10,42,15.80
2018,05,26,10,43,15.80
2018,05,26,10,44,15.80
2018,05,26,10,45,15.70
2018,05,26,10,46,15.70
2018,05,26,10,47,15.70
2018,05,26,10,48,15.70
2018,05,26,10,49,15.70
2018,05,26,10,50,15.70
2018,05,26,10,51,15.70
2018,05,26,10,52,15.70
2018,05,26,10,53,15.80
2018,05,26,10,54,15.70
2018,05,26,10,55,15.70
2018,05,26,10,56,15.70
2018,05,26,10,57,15.70
2018,05,26,10,58,15.70
2018,05,26,10,59,15.60
2018,05,26,11,00,15.60
2018,05,26,11,01,15.60
2018,05,26,11,02,15.60
2018,05,26,11,03,15.60
2018,05,26,11,04,15.60
2018,05,26,11,05,15.60
2018,05,26,11,06,15.50
2018,05,26,11,07,15.50
2018,05,26,11,08,15.50
2018,05,26,11,09,15.40
2018,05,26,11,10,15.40
2018,05,26,11,11,15.40
2018,05,26,11,12,15.40
2018,05,26,11,13,15.30
2018,05,26,11,14,15.30
2018,05,26,11,15,15.40
2018,05,26,11,16,15.40
2018,05,26,11,17,15.50
2018,05,26,11,18,15.60
2018,05,26,11,19,15.60
2018,05,26,11,20,15.70
2018,05,26,11,21,15.70
2018,05,26,11,22,15.70
2018,05,26,11,23,15.70
2018,05,26,11,24,15.70
2018,05,26,11,25,15.70
2018,05,26,11,26,15.70
2018,05,26,11,27,15.70
2018,05,26,11,28,15.70
2018,05,26,11,29,15.70
2018,05,26,11,30,15.70
2018,05,26,11,31,15.80
2018,05,26,11,32,15.80
2018,05,26,11,33,15.90
2018,05,26,11,34,15.90
2018,05,26,11,35,16.00
2018,05,26,11,36,16.10
2018,05,26,11,37,16.30
2018,05,26,11,38,16.30
2018,05,26,11,39,16.40
2018,05,26,11,40,16.50
2018,05,26,11,41,16.60
2018,05,26,11,42,16.70
2018,05,26,11,43,16.80
2018,05,26,11,44,16.80
2018,05,26,11,45,16.80
2018,05,26,11,46,16.90
2018,05,26,11,47,16.90
2018,05,26,11,48,17.00
2018,05,26,11,49,17.00
2018,05,26,11,50,17.10
2018,05,26,11,51,17.10
2018,05,26,11,52,17.20
2018,05,26,11,53,17.20
2018,05,26,11,54,17.30
2018,05,26,11,55,17.30
2018,05,26,11,56,17.40
2018,05,26,11,57,17.30
2018,05,26,11,58,17.30
2018,05,26,11,59,17.20
2018,05,26,12,00,17.20
2018,05,26,12,01,17.10
2018,05,26,12,02,17.10
2018,05,26,12,03,17.10
2018,05,26,12,04,17.10
2018,05,26,12,05,17.10
2018,05,26,12,06,17.10
2018,05,26,12,07,17.20
2018,05,26,12,08,17.20
2018,05,26,12,09,17.30
2018,05,26,12,10,17.30
2018,05,26,12,11,17.30
2018,05,26,12,12,17.30
2018,05,26,12,13,17.30
2018,05,26,12,14,17.30
2018,05,26,12,15,17.30
2018,05,26,12,16,17.30
2018,05,26,12,17,17.30
2018,05,26,12,18,17.30
2018,05,26,12,19,17.40
2018,05,26,12,20,17.50
2018,05,26,12,21,17.60
2018,05,26,12,22,17.60
2018,05,26,12,23,17.60
2018,05,26,12,24,17.70
2018,05,26,12,25,17.70
2018,05,26,12,26,17.70
2018,05,26,12,27,17.80
2018,05,26,12,28,17.80
2018,05,26,12,29,17.80
2018,05,26,12,30,17.80
2018,05,26,12,31,17.80
2018,05,26,12,32,17.80
2018,05,26,12,33,17.80
2018,05,26,12,34,17.80
2018,05,26,12,35,17.90
2018,05,26,12,36,17.90
2018,05,26,12,37,17.90
2018,05,26,12,38,17.90
2018,05,26,12,39,18.00
2018,05,26,12,40,18.00
2018,05,26,12,41,18.10
2018,05,26,12,42,18.20
2018,05,26,12,43,18.30
2018,05,26,12,44,18.40
2018,05,26,12,45,18.40
2018,05,26,12,46,18.50
2018,05,26,12,47,18.60
2018,05,26,12,48,18.60
2018,05,26,12,49,18.60
2018,05,26,12,50,18.70
2018,05,26,12,51,18.70
2018,05,26,12,52,18.70
2018,05,26,12,53,18.70
2018,05,26,12,54,18.70
2018,05,26,12,55,18.70
2018,05,26,12,56,18.70
2018,05,26,12,57,18.80
2018,05,26,12,58,18.80
2018,05,26,12,59,18.80
2018,05,26,13,00,18.90
2018,05,26,13,01,18.90
2018,05,26,13,02,18.90
2018,05,26,13,03,18.90
2018,05,26,13,04,18.90
2018,05,26,13,05,18.90
2018,05,26,13,06,18.90
2018,05,26,13,07,18.80
2018,05,26,13,08,18.80
2018,05,26,13,09,18.80
2018,05,26,13,10,18.70
2018,05,26,13,11,18.70
2018,05,26,13,12,18.70
2018,05,26,13,13,18.70
2018,05,26,13,14,18.70
2018,05,26,13,15,18.60
2018,05,26,13,16,18.60
2018,05,26,13,17,18.60
2018,05,26,13,18,18.60
2018,05,26,13,19,18.70
2018,05,26,13,20,18.70
2018,05,26,13,21,18.70
2018,05,26,13,22,18.80
2018,05,26,13,23,18.80
2018,05,26,13,24,18.80
2018,05,26,13,25,18.90
2018,05,26,13,26,18.90
2018,05,26,13,27,19.00
2018,05,26,13,28,19.00
2018,05,26,13,29,19.00
2018,05,26,13,30,19.10
2018,05,26,13,31,19.10
2018,05,26,13,32,19.10
2018,05,26,13,33,19.20
2018,05,26,13,34,19.30
2018,05,26,13,35,19.40
2018,05,26,13,36,19.50
2018,05,26,13,37,19.50
2018,05,26,13,38,19.60
2018,05,26,13,39,19.60
2018,05,26,13,40,19.50
2018,05,26,13,41,19.40
2018,05,26,13,42,19.40
2018,05,26,13,43,19.30
2018,05,26,13,44,19.20
2018,05,26,13,45,19.20
2018,05,26,13,46,19.20
2018,05,26,13,47,19.20
2018,05,26,13,48,19.10
2018,05,26,13,49,19.10
2018,05,26,13,50,19.10
2018,05,26,13,51,19.10
2018,05,26,13,52,19.20
2018,05,26,13,53,19.20
2018,05,26,13,54,19.20
2018,05,26,13,55,19.20
2018,05,26,13,56,19.20
2018,05,26,13,57,19.20
2018,05,26,13,58,19.20
2018,05,26,13,59,19.20
2018,05,26,14,00,19.10
2018,05,26,14,01,19.10
2018,05,26,14,02,19.10
2018,05,26,14,03,19.20
2018,05,26,14,04,19.10
2018,05,26,14,05,19.10
2018,05,26,14,06,19.00
2018,05,26,14,07,19.00
2018,05,26,14,08,18.90
2018,05,26,14,09,18.90
2018,05,26,14,10,18.80
2018,05,26,14,11,18.80
2018,05,26,14,12,18.80
2018,05,26,14,13,18.80
2018,05,26,14,14,18.80
2018,05,26,14,15,18.80
2018,05,26,14,16,18.90
2018,05,26,14,17,18.90
2018,05,26,14,18,19.00
2018,05,26,14,19,19.10
2018,05,26,14,20,19.20
2018,05,26,14,21,19.20
2018,05,26,14,22,19.20
2018,05,26,14,23,19.30
2018,05,26,14,24,19.30
2018,05,26,14,25,19.40
2018,05,26,14,26,19.40
2018,05,26,14,27,19.40
2018,05,26,14,28,19.40
2018,05,26,14,29,19.40
2018,05,26,14,30,19.40
2018,05,26,14,31,19.40
2018,05,26,14,32,19.40
2018,05,26,14,33,19.40
2018,05,26,14,34,19.40
2018,05,26,14,35,19.40
2018,05,26,14,36,19.40
2018,05,26,14,37,19.40
2018,05,26,14,38,19.50
2018,05,26,14,39,19.50
2018,05,26,14,40,19.50
2018,05,26,14,41,19.40
2018,05,26,14,42,19.40
2018,05,26,14,43,19.30
2018,05,26,14,44,19.30
2018,05,26,14,45,19.30
2018,05,26,14,46,19.40
2018,05,26,14,47,19.50
2018,05,26,14,48,19.50
2018,05,26,14,49,19.60
2018,05,26,14,50,19.60
2018,05,26,14,51,19.60
2018,05,26,14,52,19.60
2018,05,26,14,53,19.60
2018,05,26,14,54,19.70
2018,05,26,14,55,19.70
2018,05,26,14,56,19.70
2018,05,26,14,57,19.70
2018,05,26,14,58,19.70
2018,05,26,14,59,19.70
2018,05,26,15,00,19.70
2018,05,26,15,01,19.70
2018,05,26,15,02,19.70
2018,05,26,15,03,19.70
2018,05,26,15,04,19.60
2018,05,26,15,05,19.60
2018,05,26,15,06,19.50
2018,05,26,15,07,19.50
2018,05,26,15,08,19.60
2018,05,26,15,09,19.60
2018,05,26,15,10,19.70
2018,05,26,15,11,19.70
2018,05,26,15,12,19.70
2018,05,26,15,13,19.70
2018,05,26,15,14,19.70
2018,05,26,15,15,19.70
2018,05,26,15,16,19.60
2018,05,26,15,17,19.60
2018,05,26,15,18,19.60
2018,05,26,15,19,19.60
2018,05,26,15,20,19.60
2018,05,26,15,21,19.60
2018,05,26,15,22,19.60
2018,05,26,15,23,19.70
2018,05,26,15,24,19.70
2018,05,26,15,25,19.70
2018,05,26,15,26,19.70
2018,05,26,15,27,19.60
2018,05,26,15,28,19.60
2018,05,26,15,29,19.60
2018,05,26,15,30,19.50
2018,05,26,15,31,19.40
2018,05,26,15,32,19.40
2018,05,26,15,33,19.30
2018,05,26,15,34,19.20
2018,05,26,15,35,19.20
2018,05,26,15,36,19.10
2018,05,26,15,37,19.10
2018,05,26,15,38,19.00
2018,05,26,15,39,18.90
2018,05,26,15,40,18.90
2018,05,26,15,41,18.90
2018,05,26,15,42,18.90
2018,05,26,15,43,18.80
2018,05,26,15,44,18.80
2018,05,26,15,45,18.80
2018,05,26,15,46,18.80
2018,05,26,15,47,18.80
2018,05,26,15,48,18.80
2018,05,26,15,49,18.80
2018,05,26,15,50,18.80
2018,05,26,15,51,18.80
2018,05,26,15,52,18.80
2018,05,26,15,53,18.90
2018,05,26,15,54,18.90
2018,05,26,15,55,19.00
2018,05,26,15,56,19.10
2018,05,26,15,57,19.20
2018,05,26,15,58,19.20
2018,05,26,15,59,19.20
2018,05,26,16,00,19.30
2018,05,26,16,01,19.30
2018,05,26,16,02,19.30
2018,05,26,16,03,19.30
2018,05,26,16,04,19.30
2018,05,26,16,05,19.30
2018,05,26,16,06,19.30
2018,05,26,16,07,19.30
2018,05,26,16,08,19.30
2018,05,26,16,09,19.30
2018,05,26,16,10,19.20
2018,05,26,16,11,19.20
2018,05,26,16,12,19.20
2018,05,26,16,13,19.20
2018,05,26,16,14,19.20
2018,05,26,16,15,19.10
2018,05,26,16,16,19.10
2018,05,26,16,17,19.10
2018,05,26,16,18,19.10
2018,05,26,16,19,19.00
2018,05,26,16,20,19.00
2018,05,26,16,21,18.90
2018,05,26,16,22,18.80
2018,05,26,16,23,18.70
2018,05,26,16,24,18.70
2018,05,26,16,25,18.60
2018,05,26,16,26,18.60
2018,05,26,16,27,18.60
2018,05,26,16,28,18.60
2018,05,26,16,29,18.60
2018,05,26,16,30,18.60
2018,05,26,16,31,18.60
2018,05,26,16,32,18.60
2018,05,26,16,33,18.50
2018,05,26,16,34,18.50
2018,05,26,16,35,18.40
2018,05,26,16,36,18.40
2018,05,26,16,37,18.30
2018,05,26,16,38,18.30
2018,05,26,16,39,18.30
2018,05,26,16,40,18.30
2018,05,26,16,41,18.30
2018,05,26,16,42,18.30
2018,05,26,16,43,18.30
2018,05,26,16,44,18.30
2018,05,26,16,45,18.30
2018,05,26,16,46,18.30
2018,05,26,16,47,18.30
2018,05,26,16,48,18.30
2018,05,26,16,49,18.30
2018,05,26,16,50,18.20
2018,05,26,16,51,18.10
2018,05,26,16,52,18.10
2018,05,26,16,53,18.10
2018,05,26,16,54,18.10
2018,05,26,16,55,18.10
2018,05,26,16,56,18.00
2018,05,26,16,57,18.00
2018,05,26,16,58,18.10
2018,05,26,16,59,18.10
2018,05,26,17,00,18.10
2018,05,26,17,01,18.10
2018,05,26,17,02,18.10
2018,05,26,17,03,18.10
2018,05,26,17,04,18.10
2018,05,26,17,05,18.10
2018,05,26,17,06,18.10
2018,05,26,17,07,18.10
2018,05,26,17,08,18.10
2018,05,26,17,09,18.10
2018,05,26,17,10,18.10
2018,05,26,17,11,18.10
2018,05,26,17,12,18.10
2018,05,26,17,13,18.10
2018,05,26,17,14,18.10
2018,05,26,17,15,18.10
2018,05,26,17,16,18.00
2018,05,26,17,17,18.00
2018,05,26,17,18,18.00
2018,05,26,17,19,18.00
2018,05,26,17,20,18.00
2018,05,26,17,21,18.00
2018,05,26,17,22,18.00
2018,05,26,17,23,17.90
2018,05,26,17,24,17.90
2018,05,26,17,25,17.90
2018,05,26,17,26,17.90
2018,05,26,17,27,17.90
2018,05,26,17,28,17.80
2018,05,26,17,29,17.80
2018,05,26,17,30,17.80
2018,05,26,17,31,17.70
2018,05,26,17,32,17.70
2018,05,26,17,33,17.60
2018,05,26,17,34,17.60
2018,05,26,17,35,17.50